Regional Weather Roundup
Issued by NWS Albany, NY

Home | Current Version | Previous Version | Text Only | Print | Product List | Glossary On
Versions: 1 2 3 4 5 6 7 8 9 10 11 12 13 14 15 16 17 18 19 20 21 22 23 24 25 26 27 28 29 30 31 32 33 34 35 36 37 38 39 40 41 42 43 44 45 46 47 48 49 50
000
ASUS41 KALY 020210
RWRALY

NEW YORK STATE HOURLY WEATHER ROUNDUP
NATIONAL WEATHER SERVICE ALBANY NY
1000 PM EDT WED APR 01 2015

NOTE: "FAIR" INDICATES FEW OR NO CLOUDS BELOW 12,000 FEET WITH NO
SIGNIFICANT WEATHER AND/OR NO OBSTRUCTIONS TO VISIBILITY.

NYZ032-033-038>043-046>054-057>066-NYZ062>081-020300-
EAST


CITY           SKY/WX    TMP DP  RH WIND       PRES   REMARKS
ALBANY         CLEAR     34   4  28 W9        30.19R WCI  27
GLENS FALLS    CLEAR     29  16  58 CALM      30.16S
POUGHKEEPSIE   FAIR      32  15  49 CALM      30.18S
NEWBURGH       CLEAR     37  12  35 NW5       30.19R WCI  34
MONTGOMERY     CLEAR     31  20  63 CALM      30.17S
WHITE PLAINS   CLEAR     41   9  26 W8        30.18R
ISLIP          CLEAR     41  17  38 W6        30.18R
NEW YORK CITY  CLEAR     46  15  28 NW9       30.20R
CENTRAL PARK   CLEAR     46  13  26 CALM      30.22R
$$

NYZ005>009-017-018-044>046-055-056-020300-
CENTRAL


CITY           SKY/WX    TMP DP  RH WIND       PRES   REMARKS
FULTON         CLEAR     30   8  39 SE3       30.17F
SYRACUSE       PTCLDY    30   9  41 SE3       30.17F
ROME           CLEAR     25  13  60 CALM      30.19F
ELMIRA         CLEAR     30  21  69 SE3       30.15F
BINGHAMTON     FAIR      32  14  47 E5        30.13S WCI  27
MONTICELLO     CLEAR     30   9  40 W5        30.16F WCI  25
$$

NYZ026>034-041>043-020300-
NORTH


CITY           SKY/WX    TMP DP  RH WIND       PRES   REMARKS
WATERTOWN      CLEAR     29  14  53 CALM      30.16S
FORT DRUM      NOT AVBL
MASSENA        CLEAR     28  10  46 S5        30.15F WCI  23
SARANAC LAKE   CLEAR     22   5  48 SW3       30.07F
PLATTSBURGH    CLEAR     26  11  52 S3        30.14F
$$

NYZ001>004-010>016-019>021-020300-
WEST


CITY           SKY/WX    TMP DP  RH WIND       PRES   REMARKS
NIAGARA FALLS  PTCLDY    37  26  64 SE5       30.09F WCI  33
BUFFALO        PTCLDY    40  28  62 SE7       30.09F
DUNKIRK        CLEAR     38  30  73 SE5       30.09F WCI  34
JAMESTOWN      CLEAR     37  28  70 S7        30.09F WCI  32
WELLSVILLE     CLEAR     37  27  67 S7        30.11S WCI  32
ROCHESTER      PTCLDY    34  13  41 SE8       30.14F WCI  27
PENN YAN       CLEAR     30  17  58 CALM      30.15F
$$

             KEY
       WCI = WIND CHILL INDEX
       VSB = VISIBILITY
       HX  = HEAT INDEX
$$



USA.gov is the U.S. government's official web portal to all federal, state and local government web resources and services.